Location: Munkebjergskolens Observatorium
(55.3864°N, 10.3987°E)
Time: 04:22:30
(UTC+02:00)

CAS-6 - Pass Details

Date: 29 March 2023
Orbit: 610 x 632 km, 97.9° (Epoch: 31 May)

Event Time Altitude Azimuth Distance (km) Brightness Sun altitude
Exits shadow 22:43:41 46° 65° (ENE) 846 ? -22.6°
Drops below altitude 10° 22:47:50 10° 354° (N) 2,011 ? -23.0°
Sets 22:50:06 0° 349° (N) 2,927 ? -23.2°
